This is the latest recevied weather packets stored in our database for station/object W4DHW-4. If no packets are shown the sender has not sent any weather packets the latest 10 day(s).
| Time | Temp. | Humidity | Pressure | Rain* | Wind** | Luminosity | Snow |
|---|---|---|---|---|---|---|---|
| 1777359014 | 12.78° C | 68% | 1022.2 hPa | 0 mm | - | 0 W/m² | - |
| 1777358712 | 12.78° C | 67% | 1022.3 hPa | 0 mm | - | 0 W/m² | - |
| 1777358409 | 12.78° C | 67% | 1022.5 hPa | 0 mm | - | 0 W/m² | - |
| 1777358106 | 13.33° C | 66% | 1022.5 hPa | 0 mm | - | 0 W/m² | - |
| 1777357804 | 13.33° C | 66% | 1022.9 hPa | 0 mm | - | 0 W/m² | - |
| 1777357501 | 13.33° C | 65% | 1022.6 hPa | 0 mm | - | 0 W/m² | - |
| 1777357198 | 13.33° C | 65% | 1022.9 hPa | 0 mm | - | 0 W/m² | - |
| 1777356894 | 13.33° C | 64% | 1022.9 hPa | 0 mm | - | 0 W/m² | - |
| 1777356592 | 13.33° C | 63% | 1023.1 hPa | 0 mm | - | 0 W/m² | - |
| 1777356289 | 13.89° C | 63% | 1023.3 hPa | 0 mm | - | 0 W/m² | - |
| 1777355984 | 13.89° C | 62% | 1023.5 hPa | 0 mm | - | 0 W/m² | - |
| 1777355682 | 13.89° C | 61% | 1023.3 hPa | 0 mm | - | 0 W/m² | - |
| 1777355379 | 13.89° C | 62% | 1023.3 hPa | 0 mm | - | 0 W/m² | - |
| 1777355075 | 13.33° C | 63% | 1023.2 hPa | 0 mm | - | 0 W/m² | - |
| 1777354771 | 13.33° C | 64% | 1023.2 hPa | 0 mm | - | 0 W/m² | - |
| 1777354467 | 13.89° C | 63% | 1023.2 hPa | 0 mm | - | 0 W/m² | - |
| 1777354164 | 13.89° C | 62% | 1023 hPa | 0 mm | - | 0 W/m² | - |
| 1777353861 | 14.44° C | 61% | 1023.4 hPa | 0 mm | - | 0 W/m² | - |
| 1777353558 | 13.89° C | 62% | 1023.6 hPa | 0 mm | - | 0 W/m² | - |
| 1777353256 | 13.89° C | 61% | 1024 hPa | 0 mm | - | 0 W/m² | - |
| 1777352954 | 14.44° C | 61% | 1023.5 hPa | 0 mm | - | 0 W/m² | - |
| 1777352652 | 14.44° C | 60% | 1023.6 hPa | 0 mm | - | 0 W/m² | - |
| 1777352349 | 14.44° C | 60% | 1023.7 hPa | 0 mm | - | 0 W/m² | - |
| 1777352047 | 14.44° C | 60% | 1023.6 hPa | 0 mm | - | 0 W/m² | - |
| 1777351744 | 14.44° C | 60% | 1023.5 hPa | 0 mm | - | 0 W/m² | - |
* Rain latest hour (hover to see other rain measurements)
** Current wind speed in m/s (hover to see current wind gust speed)